DW7214 Weather Reports


time (UTC)temp
F
wind
direction
speed
knots
gust
knots
rain 1hr
in
rain 24hr
in
rain mn
in
humidity
%
barometer
mb
20220127153317 36 81 4.3 0.0 0.00 0.00 0.00 71 1024.3
20220127152809 36 29 4.3 0.0 0.00 0.00 0.00 71 1024.4
20220127152301 36 12 4.3 0.0 0.00 0.00 0.00 71 1024.4
20220127151813 36 49 1.7 0.0 0.00 0.00 0.00 71 1024.4
20220127151305 35 27 1.7 0.0 0.00 0.00 0.00 71 1024.3
20220127150824 36 56 3.5 0.0 0.00 0.00 0.00 71 1024.3
20220127150307 36 13 3.5 0.0 0.00 0.00 0.00 71 1024.3
20220127145803 36 49 3.5 0.0 0.00 0.00 0.00 71 1024.3
20220127145314 36 71 2.6 0.0 0.00 0.00 0.00 71 1024.3
20220127144805 36 26 2.6 0.0 0.00 0.00 0.00 71 1024.3
20220127144317 36 53 3.5 0.0 0.00 0.00 0.00 71 1024.2
20220127143808 36 55 2.6 0.0 0.00 0.00 0.00 71 1024.2
20220127143300 36 65 1.7 0.0 0.00 0.00 0.00 71 1024.2
20220127142811 36 56 1.7 0.0 0.00 0.00 0.00 71 1024.0
20220127142305 36 39 3.5 0.0 0.00 0.00 0.00 71 1024.0
20220127141814 36 360 4.3 0.0 0.00 0.00 0.00 71 1024.0
20220127141310 36 28 5.2 0.0 0.00 0.00 0.00 71 1023.9
20220127140831 36 69 5.2 0.0 0.00 0.00 0.00 71 1023.9
20220127140313 36 32 5.2 0.0 0.00 0.00 0.00 71 1023.9
20220127135805 36 16 3.5 0.0 0.00 0.00 0.00 71 1023.9
20220127135317 36 42 2.6 0.0 0.00 0.00 0.00 71 1023.9
20220127134809 36 52 1.7 0.0 0.00 0.00 0.00 71 1023.9
20220127134301 35 66 0.9 0.0 0.00 0.00 0.00 71 1023.8
20220127133812 35 63 0.9 0.0 0.00 0.00 0.00 71 1023.8
20220127133306 36 50 1.7 0.0 0.00 0.00 0.00 71 1023.8
20220127132802 36 58 3.5 0.0 0.00 0.00 0.00 71 1023.6
20220127132314 36 57 3.5 0.0 0.00 0.00 0.00 71 1023.6
20220127131807 36 49 4.3 0.0 0.00 0.00 0.00 71 1023.6
20220127131259 36 44 4.3 0.0 0.00 0.00 0.00 71 1023.4
20220127130819 36 24 4.3 0.0 0.00 0.00 0.00 71 1023.4
20220127130301 36 57 4.3 0.0 0.00 0.00 0.00 71 1023.4
20220127125813 36 62 4.3 0.0 0.00 0.00 0.00 71 1023.5
20220127125305 36 19 4.3 0.0 0.00 0.00 0.00 71 1023.5
20220127124817 36 59 3.5 0.0 0.00 0.00 0.00 71 1023.5
20220127124312 36 53 1.7 0.0 0.00 0.00 0.00 71 1023.5
20220127123801 36 34 0.9 0.0 0.00 0.00 0.00 71 1023.5
20220127123316 36 61 2.6 0.0 0.00 0.00 0.00 71 1023.5
20220127122808 36 71 2.6 0.0 0.00 0.00 0.00 71 1023.6
20220127122300 36 15 1.7 0.0 0.00 0.00 0.00 71 1023.6
20220127121812 36 73 1.7 0.0 0.00 0.00 0.00 71 1023.6
20220127121303 36 37 3.5 0.0 0.00 0.00 0.00 71 1023.3
20220127120823 36 46 4.3 0.0 0.00 0.00 0.00 71 1023.3
20220127120304 36 54 6.1 0.0 0.00 0.00 0.00 71 1023.3
20220127115800 36 39 5.2 0.0 0.00 0.00 0.00 71 1023.1
20220127115312 36 11 5.2 0.0 0.00 0.00 0.00 71 1023.1
20220127114802 37 26 6.1 0.0 0.00 0.00 0.00 71 1023.2
20220127114315 37 42 6.1 0.0 0.00 0.00 0.00 71 1023.2
20220127113803 37 33 6.1 0.0 0.00 0.00 0.00 71 1023.2
20220127113318 37 5 7.0 0.0 0.00 0.00 0.00 71 1023.2
20220127112809 37 69 7.0 0.0 0.00 0.00 0.00 71 1023.2
20220127112305 37 5 7.0 0.0 0.00 0.00 0.00 70 1023.2
20220127111812 37 355 7.0 0.0 0.00 0.00 0.00 70 1023.2
20220127111308 37 34 6.1 0.0 0.00 0.00 0.00 70 1023.2
20220127110829 37 30 6.1 0.0 0.00 0.00 0.00 70 1023.2
20220127110314 37 15 6.1 0.0 0.00 0.00 0.00 70 1023.2
20220127105805 37 34 7.0 0.0 0.00 0.00 0.00 70 1023.2
20220127105318 37 355 7.0 0.0 0.00 0.00 0.00 70 1023.2
20220127104809 37 348 6.1 0.0 0.00 0.00 0.00 70 1023.2
20220127104301 37 27 4.3 0.0 0.00 0.00 0.00 70 1023.4
20220127103810 37 48 3.5 0.0 0.00 0.00 0.00 71 1023.4
20220127103305 37 41 3.5 0.0 0.00 0.00 0.00 71 1023.4
20220127102800 37 63 2.6 0.0 0.00 0.00 0.00 70 1023.3
20220127102312 37 40 2.6 0.0 0.00 0.00 0.00 70 1023.3
20220127101805 37 68 2.6 0.0 0.00 0.00 0.00 70 1023.3
20220127101316 37 39 2.6 0.0 0.00 0.00 0.00 70 1023.0
20220127100816 37 17 3.5 0.0 0.00 0.00 0.00 70 1023.0
20220127100259 37 35 3.5 0.0 0.00 0.00 0.00 70 1023.0
20220127095811 37 38 2.6 0.0 0.00 0.00 0.00 70 1023.0
20220127095305 37 30 2.6 0.0 0.00 0.00 0.00 71 1023.0
20220127094812 37 60 2.6 0.0 0.00 0.00 0.00 70 1023.0
20220127094308 37 20 1.7 0.0 0.00 0.00 0.00 71 1023.0
20220127093816 37 59 0.9 0.0 0.00 0.00 0.00 71 1023.0
20220127093310 37 33 0.0 0.0 0.00 0.00 0.00 71 1023.0
20220127092802 37 25 0.0 0.0 0.00 0.00 0.00 70 1022.9
20220127092313 37 11 1.7 0.0 0.00 0.00 0.00 70 1022.9
20220127091804 37 30 1.7 0.0 0.00 0.00 0.00 70 1022.9
20220127091316 37 5 2.6 0.0 0.00 0.00 0.00 71 1022.8
20220127090817 37 360 2.6 0.0 0.00 0.00 0.00 71 1022.8
20220127090258 37 38 2.6 0.0 0.00 0.00 0.00 71 1022.8
20220127085810 37 63 3.5 0.0 0.00 0.00 0.00 71 1022.7
20220127085306 37 59 4.3 0.0 0.00 0.00 0.00 71 1022.7
20220127084819 37 5 4.3 0.0 0.00 0.00 0.00 71 1022.7
20220127084309 37 30 3.5 0.0 0.00 0.00 0.00 71 1022.7
20220127083818 37 44 2.6 0.0 0.00 0.00 0.00 71 1022.7
20220127083313 37 63 1.7 0.0 0.00 0.00 0.00 71 1022.7
20220127082805 37 64 0.9 0.0 0.00 0.00 0.00 71 1022.7
20220127082317 37 34 2.6 0.0 0.00 0.00 0.00 70 1022.7
20220127081810 37 59 1.7 0.0 0.00 0.00 0.00 70 1022.7
20220127081304 37 41 0.9 0.0 0.00 0.00 0.00 71 1022.6
20220127080824 37 38 0.0 0.0 0.00 0.00 0.00 71 1022.6
20220127080307 36 39 0.9 0.0 0.00 0.00 0.00 71 1022.6
20220127075759 36 39 0.9 0.0 0.00 0.00 0.00 71 1022.5
20220127075310 36 56 0.0 0.0 0.00 0.00 0.00 71 1022.5
20220127074801 36 57 0.0 0.0 0.00 0.00 0.00 71 1022.5
20220127074313 36 44 0.0 0.0 0.00 0.00 0.00 71 1022.4
20220127073803 36 44 0.0 0.0 0.00 0.00 0.00 72 1022.4
20220127073258 35 44 0.0 0.0 0.00 0.00 0.00 72 1022.4
20220127072810 35 44 0.0 0.0 0.00 0.00 0.00 72 1022.4
20220127072306 35 44 0.0 0.0 0.00 0.00 0.00 72 1022.4
20220127071817 35 44 0.0 0.0 0.00 0.00 0.00 72 1022.4
20220127071308 36 44 0.0 0.0 0.00 0.00 0.00 72 1022.5
20220127070827 36 44 0.0 0.0 0.00 0.00 0.00 71 1022.5
20220127070309 36 44 0.0 0.0 0.00 0.00 0.00 71 1022.5
20220127065800 36 44 0.0 0.0 0.00 0.00 0.00 71 1022.4
20220127065312 36 44 0.0 0.0 0.00 0.00 0.00 71 1022.4
20220127064803 36 44 0.0 0.0 0.00 0.00 0.00 71 1022.4
20220127064300 36 53 0.0 0.0 0.00 0.00 0.00 71 1022.0
20220127063809 36 53 0.0 0.0 0.00 0.00 0.00 71 1022.0
20220127063304 37 54 0.9 0.0 0.00 0.00 0.00 71 1022.0
20220127062815 37 57 0.9 0.0 0.00 0.00 0.00 71 1021.9
20220127062307 37 46 1.7 0.0 0.00 0.00 0.00 71 1021.9
20220127061800 37 35 2.6 0.0 0.00 0.00 0.00 70 1021.9
20220127061311 37 64 3.5 0.0 0.00 0.00 0.00 70 1021.9
20220127060828 37 49 3.5 0.0 0.00 0.00 0.00 70 1021.9
20220127060308 37 53 3.5 0.0 0.00 0.00 0.00 70 1021.9
20220127055758 37 52 3.5 0.0 0.00 0.00 0.00 70 1021.9
20220127055314 37 39 2.6 0.0 0.00 0.00 0.00 70 1021.9
20220127054806 37 40 2.6 0.0 0.00 0.00 0.00 70 1021.9
20220127054315 37 57 2.6 0.0 0.00 0.00 0.00 70 1021.8
20220127053802 37 71 2.6 0.0 0.00 0.00 0.00 70 1021.8
20220127053314 37 65 1.7 0.0 0.00 0.00 0.00 71 1021.8
20220127052803 37 52 1.7 0.0 0.00 0.00 0.00 71 1021.7
20220127052310 37 49 2.6 0.0 0.00 0.00 0.00 70 1021.7
20220127051802 37 55 1.7 0.0 0.00 0.00 0.00 70 1021.7
20220127051313 37 92 1.7 0.0 0.00 0.00 0.00 71 1021.5
20220127050816 37 39 2.6 0.0 0.00 0.00 0.00 71 1021.5
20220127050316 37 28 0.9 0.0 0.00 0.00 0.00 71 1021.5
20220127045805 37 71 0.0 0.0 0.00 0.00 0.00 71 1021.4
20220127045313 37 65 0.0 0.0 0.00 0.00 0.00 71 1021.4
20220127044804 37 65 0.0 0.0 0.00 0.00 0.00 71 1021.4
20220127044311 37 65 0.0 0.0 0.00 0.00 0.00 71 1021.3
20220127043820 37 65 0.0 0.0 0.00 0.00 0.00 71 1021.3
20220127043313 37 65 0.0 0.0 0.00 0.00 0.00 71 1021.3
20220127042804 37 65 0.0 0.0 0.00 0.00 0.00 71 1021.3
20220127042311 38 65 0.0 0.0 0.00 0.00 0.00 71 1021.3
20220127041803 38 65 0.0 0.0 0.00 0.00 0.00 70 1021.3
20220127041313 39 65 0.0 0.0 0.00 0.00 0.00 70 1021.4
20220127040832 39 65 0.9 0.0 0.00 0.00 0.00 70 1021.4
20220127040314 39 58 2.6 0.0 0.00 0.00 0.00 69 1021.4
20220127035801 39 53 2.6 0.0 0.00 0.00 0.00 69 1021.2
20220127035309 40 56 1.7 0.0 0.00 0.00 0.00 69 1021.2
20220127034759 40 55 1.7 0.0 0.00 0.00 0.00 70 1021.2
20220127034308 40 71 1.7 0.0 0.00 0.00 0.00 70 1021.2
20220127033811 40 42 0.9 0.0 0.00 0.00 0.00 70 1021.2
20220127033301 39 48 0.0 0.0 0.00 0.00 0.00 70 1021.2
20220127032810 39 48 0.0 0.0 0.00 0.00 0.00 70 1021.1
20220127032305 39 48 0.0 0.0 0.00 0.00 0.00 70 1021.1
20220127031815 39 48 0.0 0.0 0.00 0.00 0.00 71 1021.1
20220127031306 39 48 0.0 0.0 0.00 0.00 0.00 71 1020.9
20220127030825 39 48 0.0 0.0 0.00 0.00 0.00 70 1020.9
20220127030307 39 48 0.0 0.0 0.00 0.00 0.00 70 1020.9
20220127025818 40 48 0.0 0.0 0.00 0.00 0.00 70 1020.8
20220127025309 40 48 0.0 0.0 0.00 0.00 0.00 70 1020.8
20220127024800 40 48 0.0 0.0 0.00 0.00 0.00 70 1020.8
20220127024311 40 48 0.0 0.0 0.00 0.00 0.00 70 1020.8
20220127023804 40 48 0.0 0.0 0.00 0.00 0.00 70 1020.8
20220127023316 40 48 0.0 0.0 0.00 0.00 0.00 70 1020.8
20220127022807 40 48 0.0 0.0 0.00 0.00 0.00 70 1020.8
20220127022317 40 48 0.0 0.0 0.00 0.00 0.00 70 1020.8
20220127021808 40 48 0.0 0.0 0.00 0.00 0.00 70 1020.8
20220127021319 40 48 0.0 0.0 0.00 0.00 0.00 70 1020.5
20220127020817 40 48 0.0 0.0 0.00 0.00 0.00 70 1020.5
20220127020301 41 48 0.0 0.0 0.00 0.00 0.00 70 1020.5
20220127015812 41 48 0.0 0.0 0.00 0.00 0.00 69 1020.7
20220127015307 42 48 0.0 0.0 0.00 0.00 0.00 69 1020.7
20220127014818 42 48 0.0 0.0 0.00 0.00 0.00 69 1020.7
20220127014308 42 48 0.9 0.0 0.00 0.00 0.00 68 1020.4
20220127013817 43 46 1.7 0.0 0.00 0.00 0.00 68 1020.5
20220127013311 43 43 1.7 0.0 0.00 0.00 0.00 67 1020.5
20220127012801 43 47 1.7 0.0 0.00 0.00 0.00 68 1020.3
20220127012311 43 49 1.7 0.0 0.00 0.00 0.00 68 1020.3
20220127011800 43 61 0.9 0.0 0.00 0.00 0.00 68 1020.3
20220127011310 43 68 0.0 0.0 0.00 0.00 0.00 68 1020.3
20220127010828 44 68 0.0 0.0 0.00 0.00 0.00 67 1020.3
20220127010314 44 68 0.0 0.0 0.00 0.00 0.00 67 1020.3
20220127005802 45 68 0.9 0.0 0.00 0.00 0.00 67 1020.3
20220127005312 45 68 0.9 0.0 0.00 0.00 0.00 66 1020.3
20220127004803 45 68 0.9 0.0 0.00 0.00 0.00 65 1020.3
20220127004315 45 68 0.9 0.0 0.00 0.00 0.00 65 1020.3
20220127003804 46 68 0.9 0.0 0.00 0.00 0.00 64 1020.3
20220127003318 46 68 1.7 0.0 0.00 0.00 0.00 64 1020.3
20220127002806 46 68 1.7 0.0 0.00 0.00 0.00 64 1020.3
20220127002317 46 65 1.7 0.0 0.00 0.00 0.00 64 1020.3
20220127001812 46 65 1.7 0.0 0.00 0.00 0.00 64 1020.3
20220127001303 46 57 1.7 0.0 0.00 0.00 0.00 64 1020.2
20220127000822 46 57 2.6 0.0 0.00 0.00 0.00 63 1020.2
20220127000306 46 58 1.7 0.0 0.00 0.00 0.00 63 1020.3
20220126235817 47 53 1.7 0.0 0.00 0.00 0.00 63 1020.3
20220126235308 47 50 2.6 0.0 0.00 0.00 0.00 62 1020.3
20220126234819 47 47 1.7 0.0 0.00 0.00 0.00 62 1020.3
20220126234310 47 43 1.7 0.0 0.00 0.00 0.00 63 1020.3
20220126233819 47 57 1.7 0.0 0.00 0.00 0.00 64 1020.3
20220126233311 47 55 1.7 0.0 0.00 0.00 0.00 64 1020.3
20220126232806 47 54 1.7 0.0 0.00 0.00 0.00 64 1020.1
20220126232317 47 47 1.7 0.0 0.00 0.00 0.00 64 1020.1
20220126231808 46 63 1.7 0.0 0.00 0.00 0.00 64 1020.1
20220126231319 46 24 2.6 0.0 0.00 0.00 0.00 64 1020.1
20220126230820 46 25 2.6 0.0 0.00 0.00 0.00 64 1020.1
20220126230302 46 10 2.6 0.0 0.00 0.00 0.00 64 1020.1
20220126225813 46 38 1.7 0.0 0.00 0.00 0.00 64 1020.0
20220126225306 46 35 2.6 0.0 0.00 0.00 0.00 64 1020.0
20220126224800 46 42 2.6 0.0 0.00 0.00 0.00 64 1020.0
20220126224311 46 44 2.6 0.0 0.00 0.00 0.00 64 1019.8
20220126223820 46 72 3.5 0.0 0.00 0.00 0.00 64 1019.8
20220126223312 46 34 3.5 0.0 0.00 0.00 0.00 64 1019.8
20220126222803 46 48 2.6 0.0 0.00 0.00 0.00 64 1019.8
20220126222314 46 330 1.7 0.0 0.00 0.00 0.00 63 1019.8
20220126221805 46 329 1.7 0.0 0.00 0.00 0.00 63 1019.8
20220126221316 46 5 1.7 0.0 0.00 0.00 0.00 64 1019.8
20220126220814 46 355 0.9 0.0 0.00 0.00 0.00 65 1019.8
20220126220317 46 287 1.7 0.0 0.00 0.00 0.00 65 1019.8
20220126215812 45 37 1.7 0.0 0.00 0.00 0.00 65 1019.8
20220126215306 45 350 1.7 0.0 0.00 0.00 0.00 65 1019.8
20220126214814 45 344 1.7 0.0 0.00 0.00 0.00 66 1019.8
20220126214305 45 339 0.9 0.0 0.00 0.00 0.00 65 1019.9
20220126213814 45 24 1.7 0.0 0.00 0.00 0.00 66 1019.9
20220126213307 44 24 2.6 0.0 0.00 0.00 0.00 65 1019.9
20220126212818 45 5 0.9 0.0 0.00 0.00 0.00 66 1020.1
20220126212309 44 13 1.7 0.0 0.00 0.00 0.00 66 1020.1
20220126211800 44 13 2.6 0.0 0.00 0.00 0.00 67 1020.1
20220126211315 44 17 1.7 0.0 0.00 0.00 0.00 66 1020.2
20220126210815 44 330 1.7 0.0 0.00 0.00 0.00 66 1020.2
20220126210317 44 348 0.9 0.0 0.00 0.00 0.00 66 1020.2
20220126205808 44 19 0.0 0.0 0.00 0.00 0.00 66 1020.3
20220126205319 43 5 0.9 0.0 0.00 0.00 0.00 67 1020.3
20220126204810 43 5 1.7 0.0 0.00 0.00 0.00 67 1020.3
20220126204301 43 355 1.7 0.0 0.00 0.00 0.00 67 1020.4
20220126203809 43 40 0.9 0.0 0.00 0.00 0.00 67 1020.4
20220126203302 43 77 0.9 0.0 0.00 0.00 0.00 67 1020.4
20220126202813 42 77 1.7 0.0 0.00 0.00 0.00 68 1020.9
20220126202308 41 77 2.6 0.0 0.00 0.00 0.00 68 1020.8
20220126201819 41 79 2.6 0.0 0.00 0.00 0.00 68 1020.8
20220126201311 41 93 2.6 0.0 0.00 0.00 0.00 68 1020.8
20220126200824 41 89 2.6 0.0 0.00 0.00 0.00 68 1020.8
20220126200304 41 19 2.6 0.0 0.00 0.00 0.00 68 1020.8
20220126195815 40 13 1.7 0.0 0.00 0.00 0.00 68 1021.0
20220126195306 40 347 1.7 0.0 0.00 0.00 0.00 68 1021.0
20220126194814 40 67 1.7 0.0 0.00 0.00 0.00 68 1021.0
20220126194305 40 88 1.7 0.0 0.00 0.00 0.00 68 1021.4
20220126193812 39 82 1.7 0.0 0.00 0.00 0.00 68 1021.3
20220126193303 39 74 1.7 0.0 0.00 0.00 0.00 68 1021.3
20220126192814 39 52 1.7 0.0 0.00 0.00 0.00 68 1021.4
20220126192306 39 44 2.6 0.0 0.00 0.00 0.00 68 1021.4
20220126191817 39 80 2.6 0.0 0.00 0.00 0.00 68 1021.4
20220126191308 38 56 1.7 0.0 0.00 0.00 0.00 69 1021.4
20220126190829 38 70 1.7 0.0 0.00 0.00 0.00 69 1021.4
20220126190311 38 71 2.6 0.0 0.00 0.00 0.00 69 1021.4
20220126185802 38 72 1.7 0.0 0.00 0.00 0.00 69 1021.0
20220126185313 38 76 1.7 0.0 0.00 0.00 0.00 69 1021.0
20220126184808 38 84 1.7 0.0 0.00 0.00 0.00 69 1021.0
20220126184319 38 73 1.7 0.0 0.00 0.00 0.00 68 1020.9
20220126183809 38 78 0.9 0.0 0.00 0.00 0.00 68 1020.9
20220126183301 37 79 0.9 0.0 0.00 0.00 0.00 68 1020.9
20220126182811 37 61 1.7 0.0 0.00 0.00 0.00 68 1020.8
20220126182305 37 51 2.6 0.0 0.00 0.00 0.00 68 1020.8
20220126181813 37 64 2.6 0.0 0.00 0.00 0.00 68 1020.8
20220126181304 37 77 1.7 0.0 0.00 0.00 0.00 68 1020.8
20220126180824 37 71 1.7 0.0 0.00 0.00 0.00 68 1020.8
20220126180309 37 70 1.7 0.0 0.00 0.00 0.00 68 1020.8
20220126175800 37 54 1.7 0.0 0.00 0.00 0.00 68 1020.8
20220126175311 37 44 0.9 0.0 0.00 0.00 0.00 68 1020.8
20220126174802 37 5 1.7 0.0 0.00 0.00 0.00 68 1020.8
20220126174313 36 5 2.6 0.0 0.00 0.00 0.00 68 1020.4
20220126173822 36 15 3.5 0.0 0.00 0.00 0.00 68 1020.4
20220126173315 36 24 2.6 0.0 0.00 0.00 0.00 68 1020.4
20220126172806 36 87 0.9 0.0 0.00 0.00 0.00 67 1020.3
20220126172317 36 61 0.0 0.0 0.00 0.00 0.00 67 1020.3
20220126171812 36 49 0.0 0.0 0.00 0.00 0.00 67 1020.3
20220126171303 35 49 0.9 0.0 0.00 0.00 0.00 66 1020.2
20220126170823 35 49 0.9 0.0 0.00 0.00 0.00 66 1020.2
20220126170305 35 49 0.9 0.0 0.00 0.00 0.00 65 1020.2
20220126165816 35 49 0.9 0.0 0.00 0.00 0.00 64 1020.2
20220126165307 34 49 0.9 0.0 0.00 0.00 0.00 63 1020.2
20220126164817 34 49 1.7 0.0 0.00 0.00 0.00 62 1020.2
20220126164308 34 49 1.7 0.0 0.00 0.00 0.00 60 1020.1
20220126163815 34 26 0.9 0.0 0.00 0.00 0.00 55 1020.1
20220126163309 34 53 0.0 0.0 0.00 0.00 0.00 49 1020.1
20220126162804 34 35 0.0 0.0 0.00 0.00 0.00 45 1020.0
20220126162315 34 35 0.0 0.0 0.00 0.00 0.00 40 1020.0
20220126161806 34 35 0.9 0.0 0.00 0.00 0.00 31 1020.0
20220126161317 33 31 0.0 0.0 0.00 0.00 0.00 24 1019.9
20220126160817 32 48 0.0 0.0 0.00 0.00 0.00 20 1019.8
20220126160301 31 48 0.0 0.0 0.00 0.00 0.00 23 1019.8
20220126155812 30 48 0.0 0.0 0.00 0.00 0.00 32 1019.8
20220126155306 29 48 0.0 0.0 0.00 0.00 0.00 39 1019.8
20220126154814 30 48 0.0 0.0 0.00 0.00 0.00 41 1019.8
20220126154309 30 48 0.0 0.0 0.00 0.00 0.00 39 1019.7
20220126153816 32 47 0.0 0.0 0.00 0.00 0.00 29 1019.8